sat.trackr.live / text

‹ back to catalog

STARLINK-4269

NORAD 52992 · 2022-076G

PAYLOAD ACTIVE UNKNOWN

§ Identity

Operator
Country
US
Launch date
2022-07-07
Launch site
AFETR
Launch vehicle
Mass (kg)
RCS (m²)

Purposes: comms

External: N2YO · Heavens-Above · Gunter

§ Orbital elements

Epoch: 2026-05-25T02:41:22.534368Z

Period
95.44 min
Inclination
53.2133°
Eccentricity
0.0001280
Mean motion
15.08838912 rev/d
Perigee alt
538.9 km
Apogee alt
540.6 km
Semi-major
6,917.9 km
B*
4.6945e-5
RAAN
121.0567°
Arg perigee
70.6785°
Mean anomaly
289.4345°
Rev number
21,424

§ Raw data

STARLINK-42691 52992U 22076G   26145.11206637  .00000459  00000+0  46945-4 0  99972 52992  53.2133 121.0567 0001280  70.6785 289.4345 15.08838912214245

JSON: /api/v1/satellites/52992 · /tle

For live sub-satellite position, see the globe view (requires WebGL).

§ Visibility from observer

Set your observer location to see the next 7 days of passes ≥ 10°. The values pass through the URL so the page stays shareable.

No JS? Fill the form by hand. The geolocation button needs JavaScript.